{"data":{"norad_id":68911,"epoch":"2026-09-19T23:38:55.701024Z","epoch_age_seconds":59885,"freshness":"FRESH","line1":"1 68911U 26097S   26262.98536691  .00008318  00000+0  25970-3 0  9999","line2":"2 68911  97.2865  97.1472 0001304  92.8310 267.3081 15.33445040 22016","mean_motion":15.3344504,"eccentricity":0.0001304,"inclination_deg":97.2865,"raan_deg":97.1472,"arg_perigee_deg":92.831,"mean_anomaly_deg":267.3081,"bstar":0.0002597,"rev_number":2201,"period_min":93.906202207286,"perigee_km":464.65063958704,"apogee_km":466.43547134551,"semimajor_km":6843.6800554663,"source":"CELESTRAK","updated_at":"2026-09-20T09:00:44.049325Z"}}